EW4022 Weather Reports


Display with metric or nautical units.
time (UTC)temp
F
wind
direction
speed
MPH
gust
MPH
rain 1hr
in
rain 24hr
in
rain mn
in
humidity
%
barometer
mb
20260506084512 62 274 0.0 1.0 0.00 0.00 0.00 74 971.2
20260506084015 62 274 0.0 1.0 0.00 0.00 0.00 74 971.1
20260506083512 62 274 0.0 1.0 0.00 0.00 0.00 74 971.0
20260506083013 62 274 0.0 1.0 0.00 0.00 0.00 74 971.0
20260506082512 62 274 0.0 2.0 0.00 0.00 0.00 74 971.1
20260506082011 62 274 0.0 3.0 0.00 0.00 0.00 74 971.3
20260506081508 61 274 0.0 3.0 0.00 0.00 0.00 75 971.3
20260506081007 61 274 0.0 2.0 0.00 0.00 0.00 75 971.1
20260506080507 60 274 0.0 3.0 0.00 0.00 0.00 75 971.2
20260506073504 59 22 1.0 3.0 0.00 0.00 0.00 76 971.0
20260506073004 59 22 0.0 2.0 0.00 0.00 0.00 76 971.1
20260506072506 59 22 0.0 2.0 0.00 0.00 0.00 76 971.3
20260506072003 59 22 0.0 4.0 0.00 0.00 0.00 75 971.3
20260506071502 60 22 1.0 4.0 0.00 0.00 0.00 75 971.1
20260506071100 60 22 0.0 3.0 0.00 0.00 0.00 75 971.3
20260506070600 60 22 0.0 3.0 0.00 0.00 0.00 75 971.5
20260506062057 59 22 0.0 3.0 0.00 0.00 0.00 75 971.7
20260506061601 59 22 0.0 3.0 0.00 0.00 0.00 75 971.8
20260506061055 59 22 0.0 3.0 0.00 0.00 0.00 75 971.8
20260506060555 59 22 0.0 2.0 0.00 0.00 0.00 75 971.8
20260506051048 59 22 0.0 2.0 0.00 0.00 0.00 73 972.1
20260506050547 59 22 0.0 2.0 0.00 0.00 0.00 73 972.3
20260506050104 59 22 0.0 1.0 0.00 0.00 0.00 73 972.3
20260506045046 59 22 0.0 2.0 0.00 0.00 0.00 73 972.4
20260506044550 59 22 0.0 2.0 0.00 0.00 0.00 73 972.5
20260506044044 59 22 0.0 0.0 0.00 0.00 0.00 72 972.4
20260506043544 59 22 0.0 2.0 0.00 0.00 0.00 71 972.4
20260506043044 60 22 0.0 2.0 0.00 0.00 0.00 71 972.4
20260506042543 60 22 0.0 2.0 0.00 0.00 0.00 71 972.4
20260506042043 60 22 0.0 2.0 0.00 0.00 0.00 70 972.5
20260506041542 60 22 0.0 3.0 0.00 0.00 0.00 70 972.5
20260506041041 60 22 0.0 3.0 0.00 0.00 0.00 70 972.6
20260506040540 60 22 0.0 3.0 0.00 0.00 0.00 70 972.5
20260506040042 60 22 0.0 3.0 0.00 0.00 0.00 70 972.5
20260506035540 60 22 0.0 3.0 0.00 0.00 0.00 70 972.5
20260506035038 60 22 0.0 3.0 0.00 0.00 0.00 70 972.5
20260506034542 60 22 1.0 2.0 0.00 0.00 0.00 70 972.6
20260506034037 60 23 0.0 1.0 0.00 0.00 0.00 69 972.4
20260506033537 60 22 0.0 3.0 0.00 0.00 0.00 69 972.3
20260506033041 60 22 0.0 3.0 0.00 0.00 0.00 69 972.5
20260506032537 60 22 0.0 0.0 0.00 0.00 0.00 68 972.5
20260506032037 61 22 0.0 2.0 0.00 0.00 0.00 67 972.5
20260506031545 61 22 0.0 2.0 0.00 0.00 0.00 67 972.5
20260506031035 61 22 0.0 2.0 0.00 0.00 0.00 66 972.6
20260506030537 61 22 0.0 3.0 0.00 0.00 0.00 66 972.7
20260506030041 62 22 1.0 3.0 0.00 0.00 0.00 66 972.7
20260506025536 62 23 0.0 2.0 0.00 0.00 0.00 66 972.8
20260506025036 62 23 0.0 3.0 0.00 0.00 0.00 65 972.8
20260506024543 62 23 1.0 3.0 0.00 0.00 0.00 65 972.7
20260506024036 62 23 0.0 2.0 0.00 0.00 0.00 65 972.8
20260506023541 62 23 0.0 3.0 0.00 0.00 0.00 64 972.9
20260506023036 63 23 1.0 3.0 0.00 0.00 0.00 63 972.9
20260506022535 63 23 0.0 2.0 0.00 0.00 0.00 64 972.9
20260506022035 63 23 0.0 1.0 0.00 0.00 0.00 64 972.9
20260506021538 63 23 0.0 1.0 0.00 0.00 0.00 64 973.0
20260506021035 63 23 0.0 1.0 0.00 0.00 0.00 64 973.0
20260506020534 63 23 0.0 2.0 0.00 0.00 0.00 64 972.9
20260506020034 63 23 0.0 2.0 0.00 0.00 0.00 62 972.9
20260506015534 63 23 0.0 2.0 0.00 0.00 0.00 63 972.9
20260506015034 63 23 0.0 0.0 0.00 0.00 0.00 62 972.9
20260506014533 64 23 0.0 0.0 0.00 0.00 0.00 62 972.9
20260506014033 64 23 0.0 0.0 0.00 0.00 0.00 61 972.9
20260506013533 64 23 0.0 0.0 0.00 0.00 0.00 60 972.9
20260506013034 64 23 0.0 0.0 0.00 0.00 0.00 59 972.9
20260506012534 65 23 0.0 0.0 0.00 0.00 0.00 59 972.8
20260506012033 65 23 0.0 0.0 0.00 0.00 0.00 58 972.9
20260506011537 66 23 0.0 0.0 0.00 0.00 0.00 58 972.8
20260506011033 66 23 0.0 0.0 0.00 0.00 0.00 57 972.7
20260506010533 66 23 0.0 0.0 0.00 0.00 0.00 56 972.7
20260506010034 67 23 0.0 0.0 0.00 0.00 0.00 55 972.7
20260506005531 68 23 0.0 0.0 0.00 0.00 0.00 54 972.6
20260506005031 69 23 0.0 0.0 0.00 0.00 0.00 52 972.7
20260506004534 70 23 0.0 1.0 0.00 0.00 0.00 51 972.6
20260506004033 71 23 0.0 2.0 0.00 0.00 0.00 49 972.5
20260506003532 71 23 0.0 5.0 0.00 0.00 0.00 47 972.5
20260506003032 71 23 1.0 5.0 0.00 0.00 0.00 46 972.4
20260506002531 71 44 0.0 2.0 0.00 0.00 0.00 47 972.2
20260506002031 72 44 0.0 2.0 0.00 0.00 0.00 46 972.4
20260506001533 72 44 0.0 3.0 0.00 0.00 0.00 45 972.4
20260506001031 73 44 0.0 5.0 0.00 0.00 0.00 44 972.4
20260506000531 73 224 1.0 4.0 0.00 0.00 0.00 43 972.4
20260506000038 74 14 0.0 4.0 0.00 0.00 0.00 44 972.4
20260505235533 74 17 0.0 2.0 0.00 0.00 0.00 44 972.3
20260505235030 74 17 0.0 5.0 0.00 0.00 0.00 42 972.2
20260505234530 75 17 1.0 8.0 0.00 0.00 0.00 40 972.2
20260505234030 75 15 1.0 8.0 0.00 0.00 0.00 40 972.1
20260505233529 75 15 2.0 6.0 0.00 0.00 0.00 40 972.1
20260505233030 75 41 2.0 6.0 0.00 0.00 0.00 39 972.0
20260505232531 75 15 1.0 7.0 0.00 0.00 0.00 40 972.0
20260505232036 75 54 1.0 15.0 0.00 0.00 0.00 38 971.9
20260505231533 76 270 4.0 15.0 0.00 0.00 0.00 37 971.9
20260505231028 76 266 3.0 8.0 0.00 0.00 0.00 37 971.9
20260505230528 76 87 2.0 9.0 0.00 0.00 0.00 36 971.9
20260505230035 76 25 3.0 10.0 0.00 0.00 0.00 35 971.8
20260505225529 76 34 3.0 11.0 0.00 0.00 0.00 36 971.9
20260505225029 76 27 3.0 11.0 0.00 0.00 0.00 35 972.0
20260505224529 76 15 3.0 10.0 0.00 0.00 0.00 35 971.9
20260505224029 77 113 3.0 10.0 0.00 0.00 0.00 35 971.9
20260505223528 77 41 2.0 6.0 0.00 0.00 0.00 35 971.9
20260505223034 78 18 2.0 10.0 0.00 0.00 0.00 34 971.8
20260505222528 78 40 4.0 11.0 0.00 0.00 0.00 34 972.0
20260505222028 78 5 5.0 11.0 0.00 0.00 0.00 36 971.9
20260505221527 77 22 4.0 11.0 0.00 0.00 0.00 36 971.9
20260505221026 78 77 2.0 9.0 0.00 0.00 0.00 35 971.9
20260505220526 78 16 2.0 12.0 0.00 0.00 0.00 34 972.0
20260505220028 78 5 3.0 12.0 0.00 0.00 0.00 34 972.1
20260505215527 79 24 3.0 15.0 0.00 0.00 0.00 33 972.0
20260505215027 79 36 4.0 15.0 0.00 0.00 0.00 32 972.0
20260505214534 79 5 3.0 9.0 0.00 0.00 0.00 33 971.9
20260505214031 79 271 1.0 6.0 0.00 0.00 0.00 36 971.9
20260505213526 79 46 3.0 6.0 0.00 0.00 0.00 34 972.0
20260505213026 79 56 1.0 11.0 0.00 0.00 0.00 36 972.0
20260505212526 79 24 2.0 11.0 0.00 0.00 0.00 34 972.0
20260505212029 79 271 3.0 10.0 0.00 0.00 0.00 34 972.1
20260505211526 78 32 5.0 14.0 0.00 0.00 0.00 34 972.1
20260505211025 79 28 5.0 14.0 0.00 0.00 0.00 33 972.1
20260505210525 80 273 3.0 11.0 0.00 0.00 0.00 34 972.0
20260505210025 79 242 5.0 13.0 0.00 0.00 0.00 32 971.8
20260505205525 80 24 3.0 11.0 0.00 0.00 0.00 32 972.1
20260505205024 80 5 2.0 11.0 0.00 0.00 0.00 31 972.1
20260505204523 80 34 2.0 11.0 0.00 0.00 0.00 29 972.1
20260505204023 79 271 3.0 11.0 0.00 0.00 0.00 27 972.1
20260505203525 80 22 4.0 13.0 0.00 0.00 0.00 28 971.9
20260505203023 80 13 6.0 13.0 0.00 0.00 0.00 27 971.8
20260505202522 81 270 3.0 10.0 0.00 0.00 0.00 27 971.9
20260505202022 81 40 3.0 11.0 0.00 0.00 0.00 28 972.0
20260505201522 81 63 3.0 11.0 0.00 0.00 0.00 27 972.0
20260505201025 81 18 3.0 11.0 0.00 0.00 0.00 28 972.0
20260505200521 81 360 3.0 10.0 0.00 0.00 0.00 27 971.9
20260505200020 81 225 2.0 9.0 0.00 0.00 0.00 29 972.0
20260505195520 81 271 4.0 11.0 0.00 0.00 0.00 26 972.1
20260505195020 82 360 3.0 10.0 0.00 0.00 0.00 26 972.1
20260505194519 82 273 4.0 13.0 0.00 0.00 0.00 26 972.2
20260505194019 81 263 3.0 13.0 0.00 0.00 0.00 26 972.4
20260505193519 82 36 5.0 10.0 0.00 0.00 0.00 24 972.4
20260505193018 82 271 4.0 15.0 0.00 0.00 0.00 24 972.4
20260505192519 82 24 6.0 12.0 0.00 0.00 0.00 23 972.3
20260505192019 83 271 3.0 9.0 0.00 0.00 0.00 23 972.3
20260505191518 83 271 3.0 11.0 0.00 0.00 0.00 23 972.2
20260505191021 83 271 4.0 11.0 0.00 0.00 0.00 25 972.3
20260505190514 82 27 3.0 9.0 0.00 0.00 0.00 30 972.3
20260505190024 81 250 3.0 7.0 0.00 0.00 0.00 32 972.3
20260505185512 81 360 2.0 6.0 0.00 0.00 0.00 33 972.3
20260505185017 81 271 3.0 6.0 0.00 0.00 0.00 34 972.5
20260505184513 82 5 2.0 8.0 0.00 0.00 0.00 38 972.7
20260505184010 81 15 3.0 8.0 0.00 0.00 0.00 38 972.8
20260505183509 80 5 2.0 10.0 0.00 0.00 0.00 39 972.8
20260505183009 80 55 3.0 10.0 0.00 0.00 0.00 40 972.9
20260505182511 80 16 2.0 6.0 0.00 0.00 0.00 41 973.0
20260505182007 80 55 2.0 8.0 0.00 0.00 0.00 45 973.0
20260505181506 79 31 1.0 8.0 0.00 0.00 0.00 43 973.1
20260505181006 79 33 2.0 6.0 0.00 0.00 0.00 38 973.1
20260505180506 79 24 0.0 3.0 0.00 0.00 0.00 40 973.2
20260505180009 79 24 0.0 6.0 0.00 0.00 0.00 39 973.2
20260505175507 79 25 3.0 6.0 0.00 0.00 0.00 37 973.3
20260505175006 79 270 2.0 8.0 0.00 0.00 0.00 38 973.3
20260505174507 79 23 2.0 8.0 0.00 0.00 0.00 38 973.3
20260505174004 79 56 1.0 4.0 0.00 0.00 0.00 38 973.3
20260505173507 79 271 1.0 7.0 0.00 0.00 0.00 35 973.4
20260505173004 80 256 2.0 7.0 0.00 0.00 0.00 36 973.6
20260505172502 80 17 2.0 5.0 0.00 0.00 0.00 38 973.6
20260505172001 79 255 1.0 9.0 0.00 0.00 0.00 38 973.8
20260505171600 78 26 2.0 9.0 0.00 0.00 0.00 39 973.8
20260505171102 79 271 5.0 9.0 0.00 0.00 0.00 37 973.8
20260505170558 78 11 3.0 8.0 0.00 0.00 0.00 37 974.0
20260505170059 79 196 3.0 9.0 0.00 0.00 0.00 38 974.1
20260505165558 79 41 2.0 9.0 0.00 0.00 0.00 41 974.1
20260505165058 77 51 1.0 9.0 0.00 0.00 0.00 38 974.3
20260505164604 78 17 4.0 11.0 0.00 0.00 0.00 38 974.3
20260505164057 78 51 5.0 11.0 0.00 0.00 0.00 39 974.4
20260505163555 77 265 2.0 8.0 0.00 0.00 0.00 39 974.4
20260505163055 77 271 3.0 9.0 0.00 0.00 0.00 41 974.5
20260505162555 78 13 2.0 9.0 0.00 0.00 0.00 39 974.6
20260505162054 77 13 1.0 9.0 0.00 0.00 0.00 41 974.8
20260505161602 77 53 1.0 8.0 0.00 0.00 0.00 40 974.8
20260505161051 77 233 3.0 9.0 0.00 0.00 0.00 41 974.9
20260505160549 77 255 3.0 9.0 0.00 0.00 0.00 43 974.9
20260505153049 76 13 4.0 10.0 0.00 0.00 0.00 42 975.3
20260505152545 75 19 2.0 11.0 0.00 0.00 0.00 44 975.4
20260505152045 76 270 5.0 10.0 0.00 0.00 0.00 44 975.4
20260505151544 75 9 2.0 9.0 0.00 0.00 0.00 46 975.4
20260505151043 75 14 1.0 11.0 0.00 0.00 0.00 46 975.6
20260505150542 75 265 1.0 11.0 0.00 0.00 0.00 48 975.6
20260505140531 71 25 3.0 6.0 0.00 0.00 0.00 52 975.6
20260505125018 63 360 1.0 5.0 0.00 0.00 0.00 65 975.5
20260505124521 62 270 1.0 4.0 0.00 0.00 0.00 66 975.3
20260505124015 62 270 0.0 3.0 0.00 0.00 0.00 66 975.3
20260505123519 61 270 0.0 4.0 0.00 0.00 0.00 66 975.4
20260505123019 61 271 2.0 6.0 0.00 0.00 0.00 67 975.5
20260505122514 60 271 1.0 6.0 0.00 0.00 0.00 67 975.3
20260505122015 60 272 2.0 6.0 0.00 0.00 0.00 68 975.4
20260505121519 59 272 1.0 2.0 0.00 0.00 0.00 70 975.5
20260505121013 58 272 0.0 3.0 0.00 0.00 0.00 70 975.3
20260505120512 58 272 1.0 3.0 0.00 0.00 0.00 72 975.4
20260505120028 57 272 1.0 4.0 0.00 0.00 0.00 73 975.4
20260505115512 57 272 0.0 4.0 0.00 0.00 0.00 74 975.5
20260505115015 56 238 0.0 2.0 0.00 0.00 0.00 76 975.5
20260505114514 55 238 1.0 2.0 0.00 0.00 0.00 78 975.6
20260505114012 53 238 0.0 3.0 0.00 0.00 0.00 80 975.6
20260505113510 53 230 1.0 3.0 0.00 0.00 0.00 81 975.5
20260505113011 53 230 0.0 2.0 0.00 0.00 0.00 81 975.4
20260505112510 53 230 0.0 2.0 0.00 0.00 0.00 81 975.3
20260505112011 53 230 0.0 0.0 0.00 0.00 0.00 80 975.3
20260505111515 53 230 0.0 0.0 0.00 0.00 0.00 80 975.2
20260505111009 53 230 0.0 1.0 0.00 0.00 0.00 81 975.1
20260505110508 53 230 0.0 3.0 0.00 0.00 0.00 82 975.1
20260505102002 52 230 0.0 0.0 0.00 0.00 0.00 81 974.5
20260505101503 52 230 0.0 1.0 0.00 0.00 0.00 81 974.4
20260505101003 52 230 0.0 2.0 0.00 0.00 0.00 81 974.3
20260505100501 52 230 0.0 3.0 0.00 0.00 0.00 81 974.3
20260505100002 52 230 1.0 3.0 0.00 0.00 0.00 81 974.3
20260505095502 52 230 1.0 2.0 0.00 0.00 0.00 81 974.2
20260505095003 52 230 0.0 2.0 0.00 0.00 0.00 81 974.3
20260505094501 52 230 0.0 2.0 0.00 0.00 0.00 81 974.5
20260505094100 52 230 1.0 2.0 0.00 0.00 0.00 81 974.5
20260505093600 52 230 0.0 0.0 0.00 0.00 0.00 81 974.5
20260505093103 52 230 0.0 0.0 0.00 0.00 0.00 81 974.5
20260505092559 53 230 0.0 0.0 0.00 0.00 0.00 81 974.4
20260505092100 53 230 0.0 1.0 0.00 0.00 0.00 81 974.5
20260505091607 53 230 0.0 2.0 0.00 0.00 0.00 81 974.5
20260505091102 52 230 0.0 2.0 0.00 0.00 0.00 81 974.4
20260505090557 52 230 0.0 0.0 0.00 0.00 0.00 81 974.3
20260505090057 52 230 0.0 0.0 0.00 0.00 0.00 80 974.4
20260505085556 52 230 0.0 0.0 0.00 0.00 0.00 80 974.3
20260505085056 52 230 0.0 0.0 0.00 0.00 0.00 80 974.3